User: anonymous   Login
Location: Young's Pond
(41.2695°N, 72.7766°W)
Time: 10:11:21
(UTC-04:00)
Language:

CZ-4B R/B - Orbit

View from above orbital plane
View from above orbital plane
View from above satellite
View from above satellite

Ground track
Ground track

The orbit data is extracted from the following two-line orbital elements,

1 29093U 06015B   15210.43673440  .00003985  00000-0  11985-3 0  9997
2 29093 097.4945 297.9834 0075732 262.1687 228.8350 15.32190207511770
Epoch (UTC): 29 July 2015 10:28:53
Eccentricity: 0.0075732
inclination: 97.4945°
perigee height: 417 km
apogee height: 521 km
right ascension of ascending node: 297.9834°
argument of perigee: 262.1687°
revolutions per day: 15.32190207
mean anomaly at epoch: 228.8350°
orbit number at epoch: 51177

The dashed part of the orbit path shows where the satellite is in the earth's shadow,  

DLR